Location: Arrington
(35.8681°N, 86.7092°W)
Time: 17:54:55
(UTC+00:00)

Meteor 2-20 Rocket - Pass Details

Date: 23 November 2019
Orbit: 941 x 958 km, 82.5° (Epoch: 05 December)

Event Time Altitude Azimuth Distance (km) Brightness Sun altitude
Exits shadow 10:03:14 75° 5° (N) 991 4.4 -29.6°
Maximum altitude 10:03:48 87° 83° (E) 963 4.3 -29.5°
Drops below altitude 10° 10:09:57 10° 174° (S) 2,672 6.9 -28.3°
Sets 10:12:25 0° 174° (S) 3,612 7.6 -27.8°
